sat.trackr.live / text

‹ back to catalog

STARLINK-3754

NORAD 52350 · 2022-045V

PAYLOAD ACTIVE UNKNOWN

§ Identity

Operator
Country
US
Launch date
2022-04-29
Launch site
AFETR
Launch vehicle
Mass (kg)
RCS (m²)

Purposes: comms

External: N2YO · Heavens-Above · Gunter

§ Orbital elements

Epoch: 2026-09-20T00:08:17.458368Z

Period
93.85 min
Inclination
53.1614°
Eccentricity
0.0001561
Mean motion
15.34378550 rev/d
Perigee alt
461.7 km
Apogee alt
463.8 km
Semi-major
6,840.9 km
B*
3.3075e-5
RAAN
31.7077°
Arg perigee
81.5638°
Mean anomaly
278.5542°
Rev number
24,532

§ Raw data

STARLINK-37541 52350U 22045V   26263.00575762  .00000740  00000+0  33075-4 0  99912 52350  53.1614  31.7077 0001561  81.5638 278.5542 15.34378550245326

JSON: /api/v1/satellites/52350 · /tle

For live sub-satellite position, see the globe view (requires WebGL).

§ Visibility from observer

Set your observer location to see the next 7 days of passes ≥ 10°. The values pass through the URL so the page stays shareable.

No JS? Fill the form by hand. The geolocation button needs JavaScript.